Preview of NWS' New Version of Forecast
This preview is not operational and should not be used for support decisions.
Latest weather observations around

Haleyville, Posey Field Airport (K1M4)

Using International System of Units (Switch to English Units)
Date/ Time (CST) Wind (kph) Vis. (km) Weather Sky Cond. Temp (°C) Rel. Humidity Wind Chill (°C) Heat Index (°C) Pressure Precip. (cm)
Air Dwpt 6 hour Altimeter (hPa) Sea level (hPa) 1 hr 3 hr 6 hr
Max Min
Jan 16 15:56 Calm 16.09 Clear CLR 12 1     48%     1024.4 1027.1      
Jan 16 14:56 S 5 16.09 Clear CLR 12 1     48%     1024.4 1026.9      
Jan 16 13:56 WSW 8 16.09 Clear CLR 11 2     52%     1024.7 1027.4      
Jan 16 12:56 8 16.09 Clear CLR 10 2     56%     1025.4 1027.9      
Jan 16 11:56 Calm 16.09 Clear   9 1     58%     1026.1 1028.4      
Jan 16 10:56 Calm 16.09 Clear CLR 7 1     67%     1027.4 1029.7      
Jan 16 09:56 Calm 16.09 Clear CLR 5 1     76%     1027.8 1030.2      
Jan 16 08:56 Calm 16.09 Clear CLR 2 0     85%     1027.1 1029.4      
Jan 16 07:56 Calm 14.48 Clear CLR -1 -2     92%     1026.8 1029.2      
Jan 16 06:56 Calm 12.87 Clear CLR -6 -7     92%     1026.8 1028.9      
Jan 16 05:56 Calm 12.87 Clear CLR -5 -6     92%     1026.4 1028.8      
Jan 16 04:56 Calm 12.87 Clear CLR -5 -6     96%     1026.1 1028.3      
Jan 16 03:56 Calm 12.87 Clear CLR -4 -6     91%     1025.7 1028      
Jan 16 02:56 Calm 11.27 Clear CLR -4 -6     91%     1026.1 1028.4      
Jan 16 01:56 Calm 12.87 Clear CLR -4 -6     91%     1026.4 1028.6      
Jan 16 00:56 Calm 8.05 Fog/Mist CLR -4 -5     92%     1025.7 1028.1      
Jan 15 23:56 Calm 8.05 Fog/Mist CLR -3 -4     96%     1026.1 1028.2      
Jan 15 22:56 Calm 12.87 Clear CLR -3 -4     92%     1026.1 1028.4      
Jan 15 21:56 Calm 14.48 Clear CLR -2 -3     92%     1026.1 1028.3      
Jan 15 20:56 Calm 9.66 Fog/Mist CLR -2 -4     88%     1026.1 1028.3      
Jan 15 19:56 Calm 11.27 Clear CLR -2 -3     92%     1026.1 1028.2      
Jan 15 18:56 Calm 16.09 Clear CLR -2 -3     89%     1026.4 1028.6      
Jan 15 17:56 Calm 16.09 Clear CLR 1 -1     88%     1026.1 1028.6      
Jan 15 16:56 W 5 16.09 Partly Cloudy SCT024 3 -1     76% 2   1026.1 1028.5      
Jan 15 15:56 Calm 16.09 Partly Cloudy SCT022 4 -1     70%     1026.1 1028.3      
Jan 15 15:47 Calm 16.09 Mostly Clear FEW022 4 -1     70%     1026.1        
Jan 15 14:56 5 16.09 Cloudy OVC022 4 -1     67% 3   1026.4 1028.9      
Jan 15 13:56 W 5 16.09 Cloudy OVC020 4 -1     70% 3   1026.8 1029      
Jan 15 12:56 5 16.09 Cloudy OVC018 3 -1     73% 2   1026.8 1029.1      
Jan 15 11:56 8 16.09 Cloudy OVC016 2 -1     79% 0   1027.4 1029.8      
Jan 15 11:54 Calm 16.09 Cloudy OVC016 2 -1     81%     1027.4        
Jan 15 10:56 NW 5 16.09 Cloudy OVC014 2 -1     79% 1   1028.8 1031      
Jan 15 09:56 WNW 8 16.09 Clear   2 -2     78% -1   1029.1 1031.5      
Jan 15 08:56 5 16.09 Cloudy OVC014 1 -1     85% -1   1028.5 1030.7      
Jan 15 07:56 NNW 8 16.09 Cloudy OVC014 1 -2     82% -1   1028.1 1030.4      
Jan 15 07:49 N 8 16.09 Cloudy OVC014 1 -2     80% -1   1027.8        
Jan 15 06:56 NNW 9 16.09 Cloudy OVC016 1 -2     82% -2   1027.8 1030      
Jan 15 05:56 11 16.09 Cloudy OVC016 1 -2     82% -2   1027.4 1029.7      
Jan 15 04:56 N 11 16.09 Cloudy OVC016 1 -2     82% -2   1027.1 1029.6      
Jan 15 03:56 N 9 16.09 Cloudy OVC018 2 -2     78% -1   1026.8 1029.3      
Jan 15 02:56 NNW 9 16.09 Cloudy OVC022 2 -1     85% -1   1027.4 1029.7      
Jan 15 01:56 N 9 16.09 Cloudy OVC022 2 0     88% -1   1027.4 1029.9      
Jan 15 01:34 N 5 14.48 Cloudy FEW009 OVC022 2 0     87% 1   1027.4        
Jan 15 00:56 N 8 14.48 Cloudy FEW012 OVC024 2 1     92% -1   1027.1 1029.5      
Jan 15 00:46 NNW 5 14.48 Cloudy FEW014 OVC024 2 1     93% 1   1027.1        
Jan 14 23:56 N 8 16.09 Cloudy OVC012 2 0     88% -1   1027.4 1029.7      
Jan 14 22:56 NNW 9 16.09 Cloudy BKN014 OVC029 2 0     85% -1   1027.8 1030.3      
Jan 14 21:56 N 9 16.09 Cloudy OVC012 2 1     89% -1   1027.8 1030.2      
Jan 14 21:18 NNW 9 16.09 Cloudy OVC014 2 0     87% -1   1027.8        
Jan 14 20:56 NNW 8 16.09 Cloudy OVC016 2 0     85% 0   1027.4 1030      
Jan 14 20:35 NNW 8 16.09 Cloudy BKN018 OVC030 2 0     87% 0   1027.4        
Jan 14 20:09 NW 5 16.09 Cloudy FEW022 OVC030 2 0     87% 1   1027.4        
Jan 14 19:56 NNW 5 16.09 Cloudy BKN022 OVC030 2 0     85% 1   1027.4 1029.8      
Jan 14 18:56 N 9 16.09 Cloudy OVC018 3 1     85% 0   1027.4 1029.7      
Jan 14 17:56 NNW 8 16.09 Cloudy OVC016 3 1     85% 1   1027.8 1030      
Jan 14 17:54 NNW 9 16.09 Cloudy OVC016 3 1     87% 0   1027.4        
Jan 14 16:56 N 11 16.09 Cloudy OVC014 3 1     85% 0   1027.4 1029.8      
Jan 14 15:56 N 11 16.09 Cloudy OVC012 3 1     85% 0   1027.4 1029.6      
Jan 14 14:56 N 11 16.09 Cloudy OVC012 3 1     85% 0   1027.4 1029.7      
Jan 14 14:13 NNW 13 16.09 Cloudy OVC010 3 1     87% 0   1027.4        
Jan 14 13:56 NNW 11 16.09 Cloudy OVC008 3 1     85% 0   1027.4 1029.7      
Jan 14 12:56 NNW 11 16.09 Cloudy OVC008 2 1     92% -1   1027.4 1029.9      
Jan 14 12:08 N 15 16.09 Cloudy OVC006 2 1     93% -2   1028.1        
Jan 14 11:56 NNW 9 16.09 Cloudy OVC004 2 1     92% -1   1028.1 1030.3      
Jan 14 10:56 NNW 13 8.05 Fog/Mist OVC004 2 1     92% -1   1029.1 1031.3      
Jan 14 09:56 N 15 12.87 Cloudy OVC004 2 1     92% -2   1029.1 1031.6      
Jan 14 08:56 NNW 9 6.44 Fog/Mist OVC004 2 1     96% -1   1028.8 1031      
Jan 14 08:15 NNW 11 4.83 Fog/Mist OVC004 2 1     93% -1   1028.5        
Jan 14 07:56 NNW 13 2.82 Fog/Mist OVC004 2 1     96% -2   1028.5 1030.9      
Jan 14 07:43 NNW 9 4.02 Fog/Mist OVC004 2 1     93% -1   1028.5        
Jan 14 06:56 NNW 9 12.87 Cloudy OVC006 2 1     92% -1   1028.1 1030.8      
Jan 14 06:40 NNW 9 14.48 Cloudy OVC006 2 1     93% -1   1028.1        
Jan 14 05:56 N 11 12.87 Cloudy OVC004 2 1     96% -2   1027.8 1030      
Jan 14 05:37 N 9 9.66 Fog/Mist OVC004 2 1     93% -1   1027.4        
Jan 14 05:11 NNW 13 3.22 Fog/Mist OVC004 2 2     100% -2   1027.4        
Jan 14 04:56 NNW 8 4.83 Fog/Mist OVC004 2 2     100% -1   1027.1 1029.9      
Jan 14 04:46 NNW 15 6.44 Fog/Mist OVC004 2 1     93% -2   1027.1        
Jan 14 04:20 N 13 4.02 Fog/Mist OVC004 2 2     100% -2   1026.8        
Jan 14 03:56 NNW 9 6.44 Fog/Mist OVC004 2 2     96% -1   1027.1 1029.8      
Jan 14 02:56 NNW 11 16.09 Cloudy OVC004 2 2     96% -1   1027.1 1029.6      
Jan 14 01:56 NW 11 14.48 Cloudy OVC004 2 2     96% -1   1026.8 1029.5      
Jan 14 00:56 NW 13 12.87 Cloudy OVC004 2 2     96% -1   1026.4 1028.8      
Jan 13 23:56 NW 11 16.09 Cloudy OVC004 3 2     92% 0   1026.1 1028.6      
Jan 13 23:33 NW 8 11.27 Cloudy OVC004 3 2     93% 1   1026.4        
Jan 13 22:56 NNW 11 16.09 Cloudy OVC006 3 2     92% 0   1026.4 1029      
Jan 13 21:56 NNW 15 16.09 Cloudy OVC006 3 2     96% -1   1026.8 1029.1      
Jan 13 20:56 NNW 9 16.09 Cloudy OVC006 3 2     92% 1   1026.4 1028.8      
Jan 13 19:56 NNW 9 11.27 Cloudy OVC006 3 2     92% 1   1026.1 1028.5      
Jan 13 18:56 NNW 17 14.48 Cloudy OVC008 4 3     93% 0   1025.7 1028.2      
Jan 13 17:56 NW 9 16.09 Cloudy OVC008 4 3     93% 2   1025.4 1027.7      
Jan 13 17:31 NNW 17 16.09 Cloudy OVC008 4 3     93% 0   1025.1        
Jan 13 16:56 NW 13 16.09 Cloudy OVC010 4 3     89% 1   1024.7 1027      
May 14 07:56 Calm 16.09 Clear CLR 23 20     84%   23 1019.7        
May 14 05:56 Calm 1.61 Fog/Mist CLR 16 16     100%     1018.6        
May 12 15:56 SSW 17 16.09 Clear   31 13     35%   30 1020.3 1020.8      
May 11 23:56 S 8 16.09 Clear CLR 21 15     68%     1019.7 1020      
Jun 12 02:56 S 8 16.09 Clear CLR 22 21     91%   23 1020.7 1021      
Jun 11 11:56 SSW 17 16.09 Partly Cloudy SCT075 29 21     61%   32 1022 1022.4      
Jun 10 23:56 ESE 5 16.09 Clear CLR 19 17     90%       1020.7      
Jun 10 12:56 9 16.09 Partly Cloudy SCT055 28 16     46%   28 1019.7 1020.5      
Jun 09 04:56 Calm 12.87 Clear CLR 12 12     97%     1014.6 1015.8      
Jun 08 23:56 N 5 16.09 Clear CLR 16 13     86%     1014.9 1016.2      
Jun 06 12:56 Calm 16.09 Mostly Cloudy BKN085 BKN110 22 21     93%   22 1010.8 1011.6 0   1
Jun 06 00:48 Calm 4.83 Fog/Mist FEW120 21 21     100%     1010.8   0    
Jun 05 22:37 S 8 16.09 Mostly Cloudy BKN005 22 21     94%   23 1010.8        
Notice The following observation data may not be complete
Jun 05 20:09   16.09 Partly Cloudy FEW015 SCT025          %